Terminal Aerodrome Forecast
Issued by NWS

Home | Current Version | Previous Version | Text Only | Print | Product List | Glossary On
Versions: 1 2 3 4 5 6 7 8 9 10 11 12 13
000
FTUS45 KTFX 312320
TAFHLN
TAF
KHLN 312320Z 0100/0124 VRB06KT P6SM SCT250
     FM012000 28011KT P6SM FEW100=

USA.gov is the U.S. government's official web portal to all federal, state and local government web resources and services.